Meteo Giornale » Osservazioni meteo Italia » Pescara

ore: 08:50 - Osservazioni Meteo Pescara
Lat. 42° 26' N Lon. 14° 12' E Alt. 10 metri s.l.m.

sereno Europe/Rome

24 °C

Sereno

Temp. 24 Ore

19 °C

28 °C

Ovest/Sud-Ovest

11.1 Km/h

Dew point 18 °C

Umidità 69 %

Visibilità  10 Km

Il sole sorge alle ore 06:11

Il sole tramonta alle ore 20:03

Data e Ora Cielo e Fenomeni T °C DP °C Um. % Pres. hPa Vis. km Vento km/h
Oggi h: 08:50 sereno Sereno 24 18 69 1014 10 O/SO 11.1
Oggi h: 07:50 sereno Sereno 21 18 82 1014 10 SO 7.4
Oggi h: 06:50 coperto Coperto 20 18 88 1014 10 SO 7.4
Oggi h: 05:58 foschia Foschia 19 17 88 1014 2 N 5.5
Oggi h: 05:50 coperto Coperto 19 17 88 1014 10 N 5.5
Oggi h: 03:50 molto_nuvoloso Molto Nuvoloso 19 18 93 1014 10 N 5.5
Oggi h: 01:50 molto_nuvoloso Molto Nuvoloso 20 18 88 1014 10 N 5.5
Oggi h: 00:50 poco_nuvoloso Poco Nuvoloso 21 19 88 1014 10 SO 9.3
Ieri h: 23:50 coperto Coperto 22 19 83 1014 10 O 7.4
Ieri h: 22:50 sereno Sereno 22 20 88 1014 10 SO 9.3
Ieri h: 21:50 sereno Sereno 23 20 83 1014 10 S/SO 11.1
Ieri h: 20:50 sereno Sereno 25 19 69 1014 10 N 3.7
Ieri h: 19:50 sereno Sereno 26 19 65 1013 10 N 5.5
Ieri h: 18:50 nuvoloso Nuvoloso 27 19 61 1014 10 N/NO 7.4
Ieri h: 17:50 nuvoloso Nuvoloso 28 19 58 1014 10 N 7.4
Ieri h: 16:50 poco_nuvoloso Poco Nuvoloso 27 19 61 1014 10 N 9.3
Ieri h: 15:50 poco_nuvoloso Poco Nuvoloso 27 19 61 1014 10 N/NE 9.3
Ieri h: 14:50 poco_nuvoloso Poco Nuvoloso 27 20 65 1014 10 N/NE 14.8
Ieri h: 13:50 poco_nuvoloso Poco Nuvoloso 27 20 65 1014 10 N 14.8
Ieri h: 12:50 poco_nuvoloso Poco Nuvoloso 28 20 61 1014 10 N 20.3
Ieri h: 11:50 poco_nuvoloso Poco Nuvoloso 28 19 58 1014 10 N 18.5
Ieri h: 10:50 nuvoloso Nuvoloso 28 19 58 1014 10 N/NO 14.8
Ieri h: 09:50 sereno Sereno 27 19 61 1014 10 NO 13